GFSMA_con_3kmhel_000.txt.gz
Helicity
36 49 61 58 62 59 50 46 43 43 43 41 36 37 45 62 69 72 68 67 77 100 111 115 112 106 127 130 129 163 148 130 103 74 51 29 23 36 44 51 45 44 42
23 33 40 46 49 52 50 50 47 47 49 50 43 42 43 53 57 66 63 60 73 98 127 141 137 130 127 141 150 147 146 154 131 98 69 60 35 40 47 46 54 57 44
10 16 25 34 45 53 51 46 52 54 55 64 60 70 60 53 53 50 47 70 47 58 91 138 161 163 152 144 139 154 158 140 136 138 127 110 67 43 32 45 56 65 75
31 35 39 44 48 55 56 59 61 64 62 58 65 75 83 86 78 65 50 51 61 55 30 91 118 150 166 157 151 152 142 158 152 147 130 109 135 118 73 35 59 74 74
61 74 74 74 79 89 94 98 97 106 107 114 96 92 91 95 88 71 68 70 87 85 63 60 61 92 129 153 156 148 150 158 148 145 153 139 91 120 155 103 98 76 60
77 79 78 76 91 95 93 87 94 111 155 138 149 155 137 113 103 105 83 79 96 102 64 57 8 32 59 94 117 124 133 143 162 223 152 146 185 154 89 111 103 106 82
83 82 83 94 97 115 115 113 123 134 137 155 166 178 183 174 157 141 125 121 108 101 109 73 71 76 51 36 62 122 126 122 130 154 188 129 124 166 185 82 31 57 167
100 96 98 95 90 97 100 113 120 145 171 182 194 179 180 172 177 155 120 161 131 145 122 96 125 75 63 65 81 78 121 144 132 108 133 105 103 127 160 190 165 132 23
92 81 70 72 72 84 109 124 140 141 166 180 194 281 223 246 135 142 207 161 123 134 124 165 93 70 59 41 24 -12 95 134 148 130 128 130 93 64 118 135 191 178 193
61 45 63 73 92 125 146 163 173 194 176 182 197 199 208 209 238 224 245 218 216 218 180 173 116 69 58 11 31 16 70 96 128 120 125 136 103 68 68 110 110 185 171
65 71 74 88 124 153 183 182 198 209 192 192 206 243 296 217 219 258 292 282 218 265 321 198 155 142 67 33 19 40 72 147 151 145 133 114 114 90 57 67 98 113 154
88 88 120 159 186 217 248 230 241 265 267 342 361 438 460 538 472 377 247 255 280 159 197 242 179 99 111 66 27 105 78 150 184 202 206 200 189 140 105 73 80 107 139
91 96 128 175 219 240 239 233 208 194 197 190 236 241 253 308 404 473 559 536 555 405 418 254 117 100 124 65 89 105 93 139 185 209 216 220 215 215 187 156 122 111 120
73 144 172 215 245 222 200 176 289 337 293 220 143 110 76 99 149 182 228 242 247 290 195 143 138 128 104 105 141 161 110 90 155 212 202 212 206 233 228 210 192 174 133
134 148 191 215 261 254 264 252 250 220 239 199 128 54 44 5 -43 -89 -70 70 119 161 144 124 132 85 104 99 116 117 95 106 112 171 196 217 244 231 240 246 213 167 141
114 162 215 217 216 196 214 186 117 93 58 41 18 9 22 24 23 29 29 26 41 72 78 106 116 131 144 142 129 122 96 122 99 78 108 170 213 238 258 237 204 177 146
147 161 174 178 202 224 127 89 49 19 35 57 54 19 19 19 36 48 49 35 30 45 55 71 75 75 91 103 110 102 81 68 63 42 69 114 171 189 190 186 195 189 154
138 175 224 219 127 69 68 78 85 77 82 81 89 85 72 69 76 73 82 76 82 83 90 79 84 97 91 90 77 70 72 74 83 90 71 113 126 145 152 158 167 143 146
160 136 115 95 93 92 82 80 82 90 97 104 110 109 98 98 94 90 89 90 89 86 85 85 74 85 85 85 73 64 66 71 74 81 120 107 83 76 102 130 141 143 134
98 109 100 75 87 82 76 74 87 100 97 99 98 94 96 92 83 77 77 78 77 80 81 86 81 77 88 85 83 72 65 62 60 69 80 88 110 79 80 99 107 131 129
95 84 77 78 72 69 103 121 89 106 92 87 82 74 75 92 101 78 79 71 73 75 80 89 96 93 96 94 89 88 83 85 88 93 98 95 101 100 94 75 75 104 121
84 73 77 73 69 80 189 140 117 88 82 70 67 64 66 62 49 48 58 59 77 93 92 108 120 111 81 115 127 103 87 87 67 94 85 81 132 127 116 107 108 97 90
69 69 74 84 84 75 173 112 97 75 70 59 56 59 53 54 50 43 57 67 61 62 88 82 97 108 100 103 105 107 113 106 91 91 117 104 115 145 161 165 171 130 139
67 72 85 85 75 75 136 100 75 59 63 54 48 39 36 30 37 81 63 63 58 58 65 85 74 71 76 75 83 76 72 72 83 93 98 92 103 99 114 136 141 161 119
74 85 90 85 76 85 127 101 82 76 65 52 40 33 43 30 21 40 45 42 45 43 53 62 55 41 35 37 37 77 83 86 82 78 82 75 91 76 81 90 108 118 130
85 109 102 88 99 84 105 98 85 76 54 43 35 24 8 3 15 23 32 43 34 7 19 61 61 47 41 30 25 42 49 58 65 61 69 81 85 73 65 65 66 80 86

GFSMA_con_3kmhel_003.txt.gz
Helicity
42 25 39 33 44 46 47 52 48 42 50 33 42 29 28 39 56 66 110 107 89 84 93 97 100 93 98 103 109 119 106 66 75 53 61 38 38 29 25 43 43 34 51
43 20 33 24 20 36 53 59 55 53 44 54 60 59 55 57 69 60 62 125 91 97 103 112 116 124 132 135 132 127 122 118 123 104 71 75 83 65 48 38 48 47 39
40 36 32 29 28 48 52 53 65 71 65 56 56 76 80 77 81 95 84 77 134 99 100 108 112 120 127 135 156 152 142 132 131 119 97 119 87 72 60 59 48 46 46
54 45 42 45 56 78 72 69 71 79 89 99 117 108 114 125 94 111 112 101 117 117 104 103 100 100 104 117 125 139 154 142 123 123 107 74 114 132 91 89 71 51 55
98 84 71 70 81 96 107 86 81 84 96 101 112 127 157 156 153 139 130 126 135 138 145 152 130 105 109 107 103 107 120 136 158 142 113 109 59 66 78 130 99 47 28
128 105 94 99 103 108 112 109 115 105 107 116 100 95 129 187 214 186 152 159 177 167 137 223 218 142 112 110 98 91 84 97 132 141 181 130 124 158 131 103 136 106 85
101 94 70 115 143 136 129 126 115 111 129 124 127 163 190 169 173 225 179 180 169 171 194 144 220 112 108 89 95 95 93 85 86 121 143 176 102 127 135 157 123 120 156
59 54 175 168 145 129 108 101 103 133 147 140 149 143 151 153 180 229 303 263 214 205 235 178 177 136 215 120 94 93 111 106 92 75 95 122 129 79 111 137 169 186 117
105 136 138 147 138 118 115 134 155 159 164 169 161 153 156 178 166 159 138 295 197 220 256 259 308 296 226 177 189 122 114 90 103 88 68 94 116 74 81 117 127 139 157
124 121 129 132 135 101 102 118 159 227 208 195 205 197 201 198 182 164 120 101 171 211 209 237 224 299 250 203 185 255 162 112 96 88 67 54 99 99 63 79 103 121 156
163 136 140 148 101 73 99 136 171 189 189 224 289 304 376 344 298 286 228 134 151 199 278 275 112 323 208 176 185 130 155 121 102 105 91 85 64 92 83 57 66 78 119
144 150 146 154 77 66 143 178 165 269 387 294 280 279 276 247 312 290 300 274 240 138 247 429 143 196 267 184 125 227 196 134 107 111 145 142 121 98 93 84 61 70 69
139 128 141 106 120 136 141 232 276 253 290 291 306 178 143 146 147 142 146 169 215 323 160 209 276 197 85 121 132 147 175 155 141 131 162 160 149 133 115 113 106 89 101
107 118 114 129 119 180 194 208 212 179 171 156 126 108 74 60 74 76 63 77 93 68 181 369 410 263 81 110 180 226 141 68 102 125 161 166 151 156 133 111 109 120 131
113 124 120 143 155 173 236 229 162 131 127 105 97 82 43 50 37 30 27 21 10 57 140 35 8 46 65 78 83 76 67 58 96 133 145 168 158 150 157 149 125 111 105
144 159 203 161 173 214 222 193 163 113 113 104 74 67 37 37 43 50 31 34 24 18 52 93 114 163 196 98 42 56 95 117 82 109 114 89 115 148 149 174 190 168 136
137 162 193 198 198 209 138 105 115 97 110 106 95 86 83 75 80 62 56 55 55 48 63 77 86 72 81 85 106 110 88 87 66 58 57 72 89 105 137 155 167 168 173
159 138 120 133 86 95 89 99 102 100 85 102 116 130 128 114 136 123 106 82 69 70 93 87 95 120 139 101 83 81 77 61 68 50 57 50 28 91 112 103 102 132 144
92 74 87 71 66 80 66 67 75 70 67 74 93 102 131 145 133 123 123 123 111 99 105 92 80 76 84 90 103 94 95 83 76 69 35 56 81 75 89 86 81 83 109
109 100 86 70 75 76 76 86 120 124 92 77 80 79 91 82 85 96 101 100 106 115 92 81 74 69 68 65 86 98 101 101 100 60 60 65 74 51 39 74 107 124 126
103 84 74 74 75 79 120 179 140 101 88 84 97 88 67 68 139 96 82 72 77 89 83 81 74 72 79 82 75 69 87 94 100 105 109 117 119 86 72 50 82 89 105
83 83 76 69 77 71 180 173 128 98 70 61 62 70 81 79 67 59 42 34 77 74 82 94 83 96 123 133 149 141 129 122 103 126 113 119 150 145 145 147 62 38 58
72 67 64 73 107 94 206 169 140 102 96 77 63 63 62 63 74 57 36 34 29 35 78 74 83 84 90 96 104 100 108 107 107 127 115 108 108 115 119 142 174 204 267
71 74 94 130 114 105 195 194 145 88 93 73 62 61 63 49 49 80 81 78 62 53 52 58 50 43 58 65 80 92 101 105 110 119 117 84 94 98 92 91 93 91 132
68 101 144 134 120 114 110 151 98 88 78 56 49 49 55 49 46 51 42 28 27 31 36 31 33 22 22 31 53 74 86 89 76 70 71 76 67 68 74 74 67 55 64
89 172 159 137 112 95 113 100 93 91 69 64 41 30 22 18 19 20 8 3 1 19 39 42 41 35 42 42 33 56 67 65 55 50 47 58 57 61 60 64 66 80 90

GFSMA_con_3kmhel_006.txt.gz
Helicity
63 52 34 36 36 33 40 63 67 55 76 85 117 114 75 58 65 62 102 124 103 77 62 44 44 54 70 83 93 96 92 64 46 44 107 -27 -31 11 35 40 46 42 32
63 44 55 45 38 39 62 84 84 97 102 116 75 101 126 107 78 91 107 149 135 129 103 77 66 64 70 78 92 101 100 98 82 53 59 75 -0 8 40 14 61 54 46
60 66 54 46 52 70 101 94 99 122 126 145 156 154 182 187 188 109 94 127 187 141 142 121 95 85 87 87 98 103 104 111 104 105 97 87 64 76 21 43 50 62 42
77 90 82 84 81 86 105 121 120 111 122 118 122 135 171 218 241 251 212 191 181 215 176 145 120 106 84 74 84 92 99 92 101 105 119 123 112 77 94 83 50 52 46
168 195 113 96 96 101 109 111 120 138 140 127 120 122 115 159 208 214 254 272 278 220 318 203 176 159 132 99 78 82 85 91 102 114 118 103 98 84 74 129 97 75 40
178 138 104 96 93 121 140 138 131 122 108 109 100 100 107 112 132 172 221 269 326 301 269 326 318 261 213 155 111 90 76 74 76 83 102 155 108 117 89 79 88 51 39
203 104 84 103 133 191 198 179 155 129 121 111 111 117 116 121 120 133 175 233 282 339 409 366 489 390 296 183 144 101 87 71 65 76 91 104 163 105 117 125 133 121 40
195 104 108 158 200 156 168 155 140 114 118 121 126 123 129 122 140 131 110 139 179 274 355 417 407 355 312 303 211 113 79 68 63 52 64 92 115 105 76 108 120 143 128
137 96 153 158 149 131 111 111 115 129 150 146 173 213 179 191 181 193 172 132 98 90 212 288 184 285 329 355 273 241 158 93 82 72 48 47 78 111 65 77 100 112 133
146 209 173 148 143 152 124 113 146 158 164 166 210 363 398 355 195 143 197 237 184 95 101 177 164 150 277 427 344 315 212 159 109 101 74 54 47 60 87 60 87 109 116
249 180 181 170 182 163 145 129 137 197 250 246 234 229 190 168 173 145 155 212 158 176 139 172 240 219 314 469 481 438 193 165 145 108 105 67 42 43 67 72 60 86 118
172 161 168 153 144 151 122 188 263 287 269 275 234 226 199 132 114 115 160 165 118 39 133 -14 130 211 491 416 242 170 221 203 167 149 167 120 66 57 54 65 66 57 89
150 133 114 110 115 151 245 267 268 223 189 137 139 136 132 107 93 71 73 75 68 28 -3 28 25 106 228 168 192 85 91 190 188 155 140 141 150 167 122 104 89 76 76
132 100 191 213 273 302 269 287 244 225 202 162 120 109 89 90 104 98 72 77 62 47 43 23 4 -32 94 150 154 142 125 119 142 105 92 135 147 176 185 162 161 157 145
215 208 169 178 224 228 223 213 179 175 139 128 98 82 99 112 126 119 92 91 67 60 46 41 -11 40 -40 66 80 135 116 58 43 95 108 153 162 159 155 149 161 163 143
166 161 196 169 181 194 190 141 118 92 103 99 94 101 85 84 61 76 85 115 116 97 59 54 62 65 47 43 127 143 93 60 111 97 80 70 63 79 97 126 129 164 181
155 128 109 100 110 111 106 85 77 88 97 107 102 98 93 68 96 98 90 98 114 113 71 32 52 35 31 35 53 74 94 114 107 57 50 43 54 59 44 58 89 114 144
53 90 74 91 112 111 104 52 78 68 80 87 90 96 71 59 49 78 97 119 136 135 109 52 17 22 17 41 53 57 73 64 83 47 70 77 75 65 79 76 65 66 80
114 126 145 126 107 97 91 93 102 136 175 144 109 107 122 81 81 84 79 87 113 137 138 121 74 57 41 23 43 80 112 88 87 82 14 13 38 71 68 65 72 67 38
143 130 124 116 113 106 94 164 161 134 108 87 63 64 50 86 80 69 55 89 92 82 62 65 63 64 42 36 33 42 50 57 81 121 128 106 70 60 64 54 66 84 75
148 154 120 101 87 90 181 159 148 120 97 93 84 66 67 62 83 92 71 78 93 72 44 3 -0 34 60 51 57 69 87 97 125 124 156 155 140 137 135 87 66 43 105
181 144 125 114 112 152 226 222 177 117 102 96 73 53 79 75 77 99 77 27 66 79 48 60 52 49 48 64 63 75 92 104 101 153 158 115 112 87 142 159 105 144 70
165 142 121 128 204 222 255 227 172 110 77 78 80 91 79 82 81 82 97 144 99 68 67 57 39 42 41 33 10 6 39 87 97 130 121 75 103 63 66 96 121 79 85
159 123 141 192 218 214 194 153 177 125 99 72 82 65 52 44 49 66 57 38 43 43 40 37 27 41 63 64 82 82 83 82 78 93 119 85 85 66 61 49 69 80 44
125 170 175 180 161 141 118 164 127 138 105 79 73 66 55 49 35 52 45 13 -1 6 24 17 15 21 26 28 46 72 65 68 60 79 92 100 79 69 64 51 45 18 38
160 176 162 108 93 143 142 152 174 152 112 83 55 32 15 36 108 99 67 29 1 3 13 3 -0 19 29 27 34 69 92 106 97 74 53 76 74 71 76 97 98 101 98

GFSMA_con_3kmhel_009.txt.gz
Helicity
64 43 22 18 15 30 44 58 56 55 66 72 90 91 99 90 78 76 92 70 81 69 32 6 4 10 18 30 47 55 55 51 49 49 64 88 78 51 27 22 38 51 61
58 53 43 47 46 47 47 58 58 55 73 97 117 126 139 156 152 136 132 116 104 104 86 53 29 17 14 17 36 46 50 59 56 48 56 77 90 138 11 42 15 44 59
83 91 104 70 63 64 65 60 53 61 80 103 100 114 134 136 172 202 201 195 171 129 108 92 65 52 38 22 28 37 36 53 63 65 63 71 93 73 -7 43 31 54 32
199 172 155 120 122 120 100 98 77 62 78 100 99 96 89 93 114 150 193 201 212 223 182 138 109 97 82 49 37 30 36 41 44 58 74 74 94 99 97 107 66 6 10
238 252 223 205 161 113 95 108 128 101 88 71 61 61 74 83 88 89 141 164 195 278 298 224 193 173 134 103 56 37 33 35 43 37 51 77 79 80 61 61 90 78 67
315 217 188 186 149 124 117 80 84 82 55 77 106 112 122 112 105 82 77 108 175 202 308 349 310 284 214 179 111 67 49 35 34 45 58 72 78 75 62 65 85 143 126
151 186 151 161 178 155 91 71 56 73 91 74 53 66 54 99 107 96 71 61 93 104 167 219 329 394 252 236 171 116 65 55 39 35 44 58 89 95 98 74 63 100 136
211 230 253 240 196 157 123 75 79 68 66 81 73 90 112 86 77 112 108 102 102 79 171 198 146 218 300 277 208 154 119 63 49 32 35 55 71 95 81 92 94 99 105
237 259 233 221 206 179 144 113 89 101 99 88 153 128 172 177 113 109 118 141 120 106 119 154 236 182 162 205 170 199 135 148 82 44 56 49 42 49 61 55 80 104 106
271 239 215 199 164 134 139 118 146 138 125 110 88 159 134 88 108 78 147 91 122 112 75 47 90 143 182 236 330 300 200 140 166 98 71 91 70 43 37 33 46 64 94
226 184 156 137 154 120 124 125 116 123 127 145 155 151 146 145 135 131 80 65 50 67 61 55 32 35 93 131 297 332 368 298 190 100 121 111 123 98 78 51 24 35 63
156 175 214 174 166 151 159 160 144 147 127 145 164 144 131 131 125 122 146 136 94 41 69 85 77 41 44 65 160 383 549 537 460 174 147 130 146 149 136 110 80 42 38
179 188 130 128 94 127 169 202 222 241 235 219 173 159 106 92 117 107 91 84 81 42 -9 24 76 112 101 67 103 96 205 295 303 250 200 48 127 190 190 176 161 101 67
179 164 116 100 133 146 156 150 136 158 167 150 164 127 92 105 104 102 119 97 82 68 74 34 45 59 122 79 94 171 141 175 118 166 173 111 85 80 158 155 182 188 199
157 121 88 87 94 103 109 109 110 108 93 96 121 101 92 88 73 87 107 90 118 104 56 41 49 65 78 84 38 -20 53 137 247 373 350 100 63 43 82 112 147 171 185
127 84 84 65 60 68 72 99 95 78 86 73 86 109 126 102 72 48 34 68 96 141 76 49 61 75 82 48 17 41 8 163 130 131 153 67 43 41 57 50 86 132 166
116 36 7 39 50 61 60 71 82 91 89 79 87 93 89 101 85 77 57 -2 61 76 99 69 64 59 34 12 25 -16 44 135 156 128 82 47 46 55 92 85 47 57 84
89 78 115 103 84 86 77 70 56 92 103 91 79 59 30 10 19 36 57 64 62 31 44 81 49 49 78 71 27 43 25 45 60 82 69 116 108 107 104 89 63 37 54
141 188 176 120 101 95 81 106 122 113 96 73 47 31 29 32 35 50 69 57 62 85 77 45 -7 -8 1 18 31 0 43 36 18 48 49 48 57 68 71 77 73 68 59
159 197 169 145 145 121 154 158 167 151 113 83 53 55 45 41 52 70 75 77 57 73 69 37 4 -14 -49 -41 -24 -43 -29 0 51 81 97 109 119 132 118 93 62 38 45
167 187 172 148 143 189 189 199 175 137 95 73 60 37 21 31 58 86 122 120 114 89 40 43 5 -16 -30 -50 -23 -20 -17 27 87 105 143 185 184 177 170 166 124 106 66
175 189 165 145 195 192 196 174 156 136 114 96 89 62 43 54 83 124 127 152 154 102 45 36 12 -5 4 12 15 -5 -43 -26 -8 59 82 140 171 158 142 149 143 102 74
150 130 187 176 166 154 169 156 173 178 132 117 97 76 73 72 77 78 70 59 61 89 75 24 -11 -10 9 36 40 38 38 -4 -16 4 3 8 56 65 61 64 56 62 86
146 194 161 166 157 120 102 128 162 154 140 105 92 64 63 64 68 63 59 51 29 30 40 5 -17 -5 1 16 24 42 60 65 38 21 21 -17 8 25 37 28 37 48 28
196 163 158 135 84 42 90 192 155 137 136 107 74 56 45 38 27 59 72 44 18 27 34 17 18 32 33 30 32 47 58 40 31 41 73 61 36 37 37 37 57 45 52
171 171 129 77 47 93 186 174 172 179 131 90 68 59 31 34 39 15 -7 -29 -19 -15 -20 -22 -13 -8 -4 -10 4 29 52 39 73 73 84 101 63 80 67 76 102 119 112